# Land Stadt Wetter Temperatur Luftdruck Luftfeuchtigkeit Sichtweite Windgeschwindigkeit Windrichtung Ortszeit
1 ad Andorra la Vella Clouds -1 996 65 0 14 217 02.08.2018 14:22
2 ae Dubai Clouds 20 1011 88 8000 8 180 02.08.2018 14:21
3 af Kabul Rain 6 1024 86 8000 5 340 02.08.2018 14:21
4 ar Buenos Aires Clear 28 1012 74 10000 15 110 02.08.2018 14:22
5 ar Esquel Clouds 9 1019 65 10000 4 0 02.08.2018 14:22
6 ar Ushuaia Clouds 7 999 75 10000 30 230 02.08.2018 14:22
7 at Innsbruck Clouds 1 1011 93 10000 5 230 02.08.2018 14:23
8 at Wien Rain 8 1011 93 7000 9 80 02.08.2018 14:22
9 au Alice Springs Clouds 32 1013 17 10000 28 150 02.08.2018 14:21
10 au Darwin Clouds 33 1011 62 10000 8 250 02.08.2018 14:22
11 au Perth Clouds 18 1021 45 10000 26 240 02.08.2018 14:21
12 au Sydney Clear 28 1014 57 7000 22 30 02.08.2018 14:22
13 bg Sofia Fog 5 1018 100 400 2 0 02.08.2018 14:21
14 bg Warna Clouds 13 1020 82 10000 28 100 02.08.2018 14:21
15 bo La Paz Clouds 8 1037 61 10000 17 80 02.08.2018 14:22
16 bo Potisi Rain 7 1017 72 0 9 30 02.08.2018 14:22
17 br Manaus Clouds 25 1011 83 10000 8 80 02.08.2018 14:21
18 br Rio de Janeiro Clouds 23 1017 100 10000 9 190 02.08.2018 14:22
19 bs Nassau Clouds 23 1019 56 10000 18 40 02.08.2018 14:22
20 ca Montreal Mist 1 1020 99 9656 5 210 02.08.2018 14:22
21 cd Kisangani Clouds 21 1008 98 0 3 92 02.08.2018 14:23
22 ch Andermatt Clouds 2 1011 86 10000 11 220 02.08.2018 14:23
23 ch Bern Clouds 2 1011 93 8000 1 15 02.08.2018 14:23
24 ck Avarua Clear 27 1011 74 10000 21 90 02.08.2018 14:22
25 cl Santiago Clear 25 1013 29 10000 13 140 02.08.2018 14:23
26 cn Lhasa Clouds -5 1022 38 0 6 40 02.08.2018 14:22
27 cn Peking Clouds 3 1027 59 10000 4 10 02.08.2018 14:23
28 cn Shanghai Clouds 16 1027 63 10000 11 50 02.08.2018 14:21
29 de Berlin Mist 6 1015 100 4000 9 80 02.08.2018 14:21
30 de Braunschweig Mist 3 1015 100 3500 9 70 02.08.2018 14:21
31 de Bremen Fog 2 1015 100 750 8 130 02.08.2018 14:22
32 de Dresden Fog 5 1013 100 150 8 60 02.08.2018 14:22
33 de Emden Fog 0 1015 86 400 9 110 02.08.2018 14:21
34 de Flensburg Rain 4 1015 93 0 11 160 02.08.2018 14:21
35 de Frankfurt Clouds 0 1012 76 10000 11 80 02.08.2018 14:22
36 de Freiburg Mist 1 1011 93 5000 8 220 02.08.2018 14:22
37 de Hamburg Clouds 4 1016 93 6000 9 130 02.08.2018 14:21
38 de Hannover Mist 3 1015 100 3500 9 70 02.08.2018 14:21
39 de Helgoland Mist 1 1015 93 1200 4 200 02.08.2018 14:22
40 de Hiddensee Clouds 6 1021 91 0 2 135 02.08.2018 14:21
41 de Kassel Clouds 3 1013 93 10000 2 330 02.08.2018 14:21
42 de Köln Clear -1 1013 100 10000 5 110 02.08.2018 14:21
43 de Magdeburg Clouds 5 1014 92 0 7 35 02.08.2018 14:22
44 de München Clouds 2 1010 93 5000 4 330 02.08.2018 14:21
45 de Nürnberg Clouds 4 1011 93 8000 4 270 02.08.2018 14:21
46 de Oberstdorf Clouds 2 1010 93 5000 9 30 02.08.2018 14:21
47 de Stuttgart Clouds 2 1010 86 10000 4 0 02.08.2018 14:22
48 de Torfhaus Clouds 3 1012 96 0 6 112 02.08.2018 14:22
49 de Trier Clouds 0 1010 94 10000 13 80 02.08.2018 14:21
50 do Santo Domingo Thunderstorm 25 1013 100 8000 8 343 02.08.2018 14:21
51 ec San Cristobal Clouds 22 1010 78 10000 22 160 02.08.2018 14:22
52 eg Kairo Clouds 14 1017 50 10000 20 65 02.08.2018 14:22
53 es Barcelona Clouds 7 1008 81 10000 17 320 02.08.2018 14:22
54 es Las Palmas de Gran Canaria Clouds 18 1017 77 10000 8 260 02.08.2018 14:21
55 es Madrid Mist 5 1008 93 5000 8 170 02.08.2018 14:23
56 es Palma de Mallorca Clouds 9 1010 100 10000 8 350 02.08.2018 14:22
57 es Sevilla Rain 11 1011 93 2400 2 0 02.08.2018 14:22
58 es Tarifa Clouds 14 1012 82 10000 13 160 02.08.2018 14:21
59 et Addis Abeba Clouds 14 1023 82 10000 11 320 02.08.2018 14:23
60 fi Helsinki Clouds 5 1033 86 10000 18 130 02.08.2018 14:21
61 fi Rovaniemi Clouds 1 1028 100 10000 21 210 02.08.2018 14:21
62 fj Suva Clouds 27 1009 88 10000 15 170 02.08.2018 14:21
63 fr Bordeaux Rain 8 1004 87 10000 13 140 02.08.2018 14:21
64 fr Nizza Clouds 8 1011 93 10000 11 330 02.08.2018 14:22
65 fr Paris Clear 0 1007 90 6000 9 60 02.08.2018 14:22
66 gb Glasgow Clouds 3 1008 94 10000 13 40 02.08.2018 14:21
67 gb London Clouds 4 1008 86 8000 17 90 02.08.2018 14:22
68 gb Manchester Clouds 4 1007 80 10000 11 0 02.08.2018 14:21
69 gl Nuuk Clear -6 1015 85 0 18 80 02.08.2018 14:22
70 gr Athen Clouds 18 1015 77 10000 21 172 02.08.2018 14:22
71 id Jakarta Haze 30 1011 83 4000 8 130 02.08.2018 14:22
72 ie Dublin Clouds 8 1000 81 10000 28 140 02.08.2018 14:21
73 in Jagatsukh Clouds 7 1022 32 0 9 2 02.08.2018 14:22
74 in Mumbai Haze 26 1011 69 2500 9 70 02.08.2018 14:22
75 in Nagpur Mist 18 1016 82 2000 5 10 02.08.2018 14:21
76 iq Bagdad Clear 7 1018 45 10000 11 300 02.08.2018 14:22
77 is Reykjavik Clouds 5 1004 69 10000 15 60 02.08.2018 14:22
78 it Mailand Clouds 9 1012 100 6000 2 210 02.08.2018 14:21
79 it Palermo Clear 10 1015 66 10000 11 170 02.08.2018 14:22
80 it Rom Clouds 9 1014 87 10000 9 100 02.08.2018 14:23
81 jp Nagasaki Clouds 11 1028 66 10000 16 57 02.08.2018 14:21
82 jp Tokio Clouds 13 1030 40 10000 13 10 02.08.2018 14:22
83 ke Nairobi Clouds 16 1019 93 10000 8 40 02.08.2018 14:22
84 kr Seoul Clouds 0 1035 63 10000 4 80 02.08.2018 14:21
85 ma Casablanca Clouds 14 1015 100 8000 11 180 02.08.2018 14:23
86 ma Marrakesch Clouds 14 1016 76 8000 2 0 02.08.2018 14:23
87 mg Antananarivo Clouds 18 1018 100 10000 5 90 02.08.2018 14:21
88 mn Ulaanbaatar Clouds -17 1007 77 8000 4 0 02.08.2018 14:23
89 mn Uliastai Snow -8 1010 81 0 7 167 02.08.2018 14:23
90 mv Male Clouds 27 1009 88 10000 8 130 02.08.2018 14:23
91 mx Mexiko Stadt Clouds 20 1024 33 11265 9 100 02.08.2018 14:21
92 mx Veracruz Clear 23 1015 78 11265 14 97 02.08.2018 14:21
93 no Hammerfest Clouds 2 1018 80 10000 21 210 02.08.2018 14:22
94 no Oslo Clouds 1 1024 94 10000 8 30 02.08.2018 14:23
95 nz Wellington Clouds 17 1018 45 10000 24 360 02.08.2018 14:23
96 pe Cusco Clouds 9 1031 47 10000 11 350 02.08.2018 14:23
97 pg Port Moresby Haze 28 1011 83 10000 18 190 02.08.2018 14:21
98 ph Manila Clouds 27 1010 83 10000 8 20 02.08.2018 14:21
99 pt Lissabon Clouds 12 1008 93 10000 8 220 02.08.2018 14:22
100 qa Doha Clouds 18 1015 29 10000 17 290 02.08.2018 14:23
101 ru Amderma Clouds -3 1022 89 0 15 265 02.08.2018 14:23
102 ru Anadyr Clear -17 1006 77 10000 18 340 02.08.2018 14:23
103 ru Jakutsk Snow -31 1015 74 10000 4 40 02.08.2018 14:22
104 ru Moskau Clear -8 1046 57 10000 14 120 02.08.2018 14:22
105 ru Surgut Clouds -12 1020 78 10000 29 280 02.08.2018 14:23
106 ru Werchojansk Clouds -32 1017 100 0 1 109 02.08.2018 14:22
107 sa Riad Clear 8 1020 61 10000 11 300 02.08.2018 14:21
108 sb Honiara Clouds 30 1007 70 10000 11 50 02.08.2018 14:22
109 se Stockholm Clouds 7 1027 93 10000 24 100 02.08.2018 14:23
110 th Bangkok Clouds 28 1014 69 10000 11 120 02.08.2018 14:21
111 tr Alanya Clear 6 1021 45 6000 10 130 02.08.2018 14:22
112 tr Ankara Clear -3 1022 79 9000 2 261 02.08.2018 14:23
113 tr Istanbul Clouds 13 1019 81 10000 11 360 02.08.2018 14:23
114 ua Kiew Drizzle 1 1033 100 7000 14 110 02.08.2018 14:21
115 us Chicago Clear 6 1021 87 16093 8 170 02.08.2018 14:23
116 us Death Valley Clear 1 1002 92 0 6 4 02.08.2018 14:22
117 us Denver Rain 0 1016 95 2816 11 20 02.08.2018 14:21
118 us Fairbanks Clear -15 987 92 14484 7 34 02.08.2018 14:23
119 us Honolulu Clouds 28 1015 69 16093 11 70 02.08.2018 14:22
120 us Las Vegas Clouds 11 1001 47 16093 8 240 02.08.2018 14:21
121 us Los Angeles Clouds 11 1003 58 16093 12 114 02.08.2018 14:22
122 us Miami Clear 19 1020 43 16093 5 350 02.08.2018 14:23
123 us New York Clear 5 1019 60 16093 9 340 02.08.2018 14:22
124 us Nome Clouds -7 984 62 16093 21 20 02.08.2018 14:23
125 us Tucson Clouds 16 1006 55 16093 33 190 02.08.2018 14:21
126 uy Montevideo Clear 26 1012 65 10000 11 120 02.08.2018 14:22
127 vn Hanoi Clouds 19 1021 82 10000 4 0 02.08.2018 14:21
128 za Kapstadt Clear 16 1012 72 10000 30 190 02.08.2018 14:22